| time (UTC) | temp F | wind direction | speed MPH | gust MPH | rain 1hr in | rain 24hr in | rain mn in | humidity % | barometer mb |
| 20260502194454 | 58 | 339 | 3.0 | 7.0 | 0.00 | 0.00 | 0.00 | 78 | 1014.3 |
| 20260502193956 | 58 | 5 | 3.0 | 7.0 | 0.00 | 0.00 | 0.00 | 78 | 1014.6 |
| 20260502193451 | 58 | 318 | 3.0 | 7.0 | 0.00 | 0.00 | 0.00 | 77 | 1014.6 |
| 20260502192952 | 58 | 4 | 3.0 | 6.0 | 0.00 | 0.00 | 0.00 | 77 | 1014.7 |
| 20260502192455 | 58 | 313 | 4.0 | 7.0 | 0.00 | 0.00 | 0.00 | 77 | 1014.5 |
| 20260502191952 | 58 | 49 | 3.0 | 7.0 | 0.00 | 0.00 | 0.00 | 78 | 1014.6 |
| 20260502191453 | 58 | 359 | 4.0 | 10.0 | 0.00 | 0.00 | 0.00 | 79 | 1014.6 |
| 20260502190951 | 58 | 28 | 4.0 | 10.0 | 0.00 | 0.00 | 0.00 | 78 | 1014.7 |
| 20260502190453 | 58 | 6 | 3.0 | 8.0 | 0.00 | 0.00 | 0.00 | 79 | 1014.7 |
| 20260502185946 | 58 | 33 | 4.0 | 11.0 | 0.00 | 0.00 | 0.00 | 78 | 1014.6 |
| 20260502185449 | 58 | 23 | 5.0 | 11.0 | 0.00 | 0.00 | 0.00 | 79 | 1014.7 |
| 20260502185154 | 57 | 29 | 4.0 | 9.0 | 0.00 | 0.00 | 0.00 | 78 | 1014.8 |
| 20260502185037 | 57 | 310 | 4.0 | 9.0 | 0.00 | 0.00 | 0.00 | 78 | 1014.7 |
| 20260502183943 | 57 | 341 | 4.0 | 8.0 | 0.00 | 0.00 | 0.00 | 79 | 1014.9 |
| 20260502183444 | 57 | 331 | 4.0 | 8.0 | 0.00 | 0.00 | 0.00 | 80 | 1014.9 |
| 20260502182944 | 57 | 15 | 4.0 | 8.0 | 0.00 | 0.00 | 0.00 | 80 | 1014.9 |
| 20260502182706 | 57 | 10 | 4.0 | 8.0 | 0.00 | 0.00 | 0.00 | 80 | 1014.9 |
| 20260502182200 | 56 | 352 | 3.0 | 9.0 | 0.00 | 0.00 | 0.00 | 80 | 1015.0 |
| 20260502181435 | 56 | 332 | 4.0 | 9.0 | 0.00 | 0.00 | 0.00 | 81 | 1015.0 |
| 20260502180935 | 56 | 332 | 4.0 | 9.0 | 0.00 | 0.00 | 0.00 | 81 | 1015.1 |
| 20260502180658 | 55 | 2 | 4.0 | 9.0 | 0.00 | 0.00 | 0.00 | 82 | 1015.0 |
| 20260502170404 | 54 | 294 | 3.0 | 7.0 | 0.00 | 0.00 | 0.00 | 83 | 1015.3 |
| 20260502163858 | 54 | 316 | 5.0 | 8.0 | 0.00 | 0.00 | 0.00 | 84 | 1015.4 |
| 20260502163359 | 54 | 251 | 4.0 | 8.0 | 0.00 | 0.00 | 0.00 | 85 | 1015.5 |
| 20260502162857 | 54 | 297 | 4.0 | 8.0 | 0.00 | 0.00 | 0.00 | 86 | 1015.3 |
| 20260502162620 | 53 | 295 | 3.0 | 8.0 | 0.00 | 0.00 | 0.00 | 85 | 1015.3 |
| 20260502161855 | 54 | 283 | 3.0 | 6.0 | 0.00 | 0.00 | 0.00 | 85 | 1015.4 |
| 20260502161354 | 53 | 293 | 4.0 | 7.0 | 0.00 | 0.00 | 0.00 | 85 | 1015.2 |
| 20260502161337 | 54 | 326 | 3.0 | 7.0 | 0.00 | 0.00 | 0.00 | 84 | 1015.2 |
| 20260502160356 | 54 | 352 | 3.0 | 6.0 | 0.00 | 0.00 | 0.00 | 84 | 1015.2 |
| 20260502151840 | 53 | 43 | 3.0 | 7.0 | 0.00 | 0.00 | 0.00 | 83 | 1015.3 |
| 20260502151336 | 53 | 48 | 4.0 | 7.0 | 0.00 | 0.00 | 0.00 | 84 | 1015.3 |
| 20260502150838 | 53 | 18 | 4.0 | 7.0 | 0.00 | 0.00 | 0.00 | 85 | 1015.3 |
| 20260502150337 | 52 | 57 | 3.0 | 7.0 | 0.00 | 0.00 | 0.00 | 85 | 1015.3 |
| 20260502130718 | 49 | 173 | 0.0 | 2.0 | 0.00 | 0.00 | 0.00 | 88 | 1015.0 |
| 20260502130219 | 49 | 161 | 0.0 | 0.0 | 0.00 | 0.00 | 0.00 | 88 | 1014.7 |
| 20260502123120 | 50 | 216 | 0.0 | 1.0 | 0.00 | 0.00 | 0.00 | 86 | 1015.1 |
| 20260502122558 | 50 | 216 | 1.0 | 2.0 | 0.00 | 0.00 | 0.00 | 87 | 1015.1 |
| 20260502122055 | 50 | 216 | 1.0 | 2.0 | 0.00 | 0.00 | 0.00 | 87 | 1015.1 |
| 20260502121540 | 50 | 216 | 1.0 | 2.0 | 0.00 | 0.00 | 0.00 | 86 | 1015.1 |
| 20260502121040 | 50 | 216 | 1.0 | 2.0 | 0.00 | 0.00 | 0.00 | 87 | 1015.2 |
| 20260502120544 | 50 | 216 | 1.0 | 3.0 | 0.00 | 0.00 | 0.00 | 87 | 1015.1 |
| 20260502115525 | 49 | 216 | 3.0 | 8.0 | 0.00 | 0.00 | 0.00 | 87 | 1015.3 |
| 20260502115025 | 49 | 237 | 4.0 | 8.0 | 0.00 | 0.00 | 0.00 | 87 | 1015.4 |
| 20260502115000 | 49 | 221 | 3.0 | 7.0 | 0.00 | 0.00 | 0.00 | 88 | 1015.4 |
| 20260502114459 | 49 | 212 | 3.0 | 7.0 | 0.00 | 0.00 | 0.00 | 88 | 1015.4 |
| 20260502113517 | 49 | 214 | 3.0 | 6.0 | 0.00 | 0.00 | 0.00 | 89 | 1015.5 |
| 20260502113013 | 50 | 201 | 3.0 | 5.0 | 0.00 | 0.00 | 0.00 | 89 | 1015.4 |
| 20260502112513 | 50 | 200 | 2.0 | 5.0 | 0.00 | 0.00 | 0.00 | 88 | 1015.5 |
| 20260502112007 | 50 | 222 | 2.0 | 3.0 | 0.00 | 0.00 | 0.00 | 85 | 1015.4 |
| 20260502111952 | 50 | 192 | 2.0 | 3.0 | 0.00 | 0.00 | 0.00 | 85 | 1015.5 |
| 20260502111003 | 50 | 219 | 2.0 | 3.0 | 0.00 | 0.00 | 0.00 | 85 | 1015.4 |
| 20260502110440 | 50 | 223 | 2.0 | 3.0 | 0.00 | 0.00 | 0.00 | 85 | 1015.5 |
| 20260502105942 | 50 | 188 | 2.0 | 4.0 | 0.00 | 0.00 | 0.00 | 85 | 1015.6 |
| 20260502105431 | 50 | 188 | 2.0 | 4.0 | 0.00 | 0.00 | 0.00 | 85 | 1015.5 |
| 20260502104933 | 50 | 197 | 1.0 | 3.0 | 0.00 | 0.00 | 0.00 | 86 | 1015.5 |
| 20260502104649 | 50 | 197 | 1.0 | 2.0 | 0.00 | 0.00 | 0.00 | 86 | 1015.5 |
| 20260502104157 | 50 | 197 | 2.0 | 4.0 | 0.00 | 0.00 | 0.00 | 86 | 1015.6 |
| 20260502103426 | 50 | 197 | 2.0 | 4.0 | 0.00 | 0.00 | 0.00 | 86 | 1015.6 |
| 20260502102928 | 50 | 185 | 1.0 | 3.0 | 0.00 | 0.00 | 0.00 | 85 | 1015.6 |
| 20260502102427 | 50 | 185 | 1.0 | 3.0 | 0.00 | 0.00 | 0.00 | 85 | 1015.5 |
| 20260502101922 | 50 | 185 | 2.0 | 3.0 | 0.00 | 0.00 | 0.00 | 85 | 1015.5 |
| 20260502101423 | 50 | 206 | 2.0 | 4.0 | 0.00 | 0.00 | 0.00 | 85 | 1015.5 |
| 20260502100911 | 50 | 216 | 1.0 | 4.0 | 0.00 | 0.00 | 0.00 | 85 | 1015.5 |
| 20260502100409 | 50 | 180 | 1.0 | 3.0 | 0.00 | 0.00 | 0.00 | 86 | 1015.6 |
| 20260502090840 | 49 | 231 | 2.0 | 6.0 | 0.00 | 0.00 | 0.00 | 86 | 1015.7 |
| 20260502090342 | 49 | 251 | 2.0 | 6.0 | 0.00 | 0.00 | 0.00 | 85 | 1015.8 |
| 20260502071307 | 51 | 259 | 3.0 | 7.0 | 0.00 | 0.00 | 0.00 | 82 | 1016.7 |
| 20260502070803 | 52 | 270 | 4.0 | 7.0 | 0.00 | 0.00 | 0.00 | 82 | 1016.7 |
| 20260502070303 | 52 | 240 | 4.0 | 7.0 | 0.00 | 0.00 | 0.00 | 81 | 1016.6 |
| 20260502065803 | 52 | 270 | 4.0 | 8.0 | 0.00 | 0.00 | 0.00 | 81 | 1016.7 |
| 20260502065306 | 52 | 226 | 4.0 | 8.0 | 0.00 | 0.00 | 0.00 | 81 | 1016.7 |
| 20260502064801 | 52 | 221 | 4.0 | 9.0 | 0.00 | 0.00 | 0.00 | 81 | 1016.8 |
| 20260502064303 | 52 | 239 | 4.0 | 9.0 | 0.00 | 0.00 | 0.00 | 81 | 1016.8 |
| 20260502063805 | 52 | 216 | 4.0 | 7.0 | 0.00 | 0.00 | 0.00 | 81 | 1016.8 |
| 20260502063302 | 52 | 227 | 3.0 | 7.0 | 0.00 | 0.00 | 0.00 | 81 | 1016.8 |
| 20260502063024 | 52 | 203 | 3.0 | 5.0 | 0.00 | 0.00 | 0.00 | 81 | 1016.8 |
| 20260502062258 | 53 | 219 | 3.0 | 4.0 | 0.00 | 0.00 | 0.00 | 81 | 1016.9 |
| 20260502061757 | 53 | 181 | 3.0 | 4.0 | 0.00 | 0.00 | 0.00 | 81 | 1016.9 |
| 20260502061255 | 53 | 239 | 3.0 | 6.0 | 0.00 | 0.00 | 0.00 | 80 | 1016.8 |
| 20260502060754 | 53 | 256 | 4.0 | 8.0 | 0.00 | 0.00 | 0.00 | 81 | 1016.8 |
| 20260502060256 | 53 | 238 | 4.0 | 8.0 | 0.00 | 0.00 | 0.00 | 81 | 1016.7 |
| 20260502055755 | 53 | 252 | 4.0 | 8.0 | 0.00 | 0.00 | 0.00 | 81 | 1016.7 |
| 20260502055254 | 53 | 225 | 5.0 | 10.0 | 0.00 | 0.00 | 0.00 | 80 | 1016.6 |
| 20260502054753 | 53 | 237 | 5.0 | 10.0 | 0.00 | 0.00 | 0.00 | 80 | 1016.6 |
| 20260502054253 | 53 | 265 | 4.0 | 8.0 | 0.00 | 0.00 | 0.00 | 80 | 1016.4 |
| 20260502053752 | 53 | 228 | 4.0 | 9.0 | 0.00 | 0.00 | 0.00 | 80 | 1016.4 |
| 20260502053511 | 53 | 237 | 4.0 | 9.0 | 0.00 | 0.00 | 0.00 | 80 | 1016.4 |
| 20260502053018 | 53 | 243 | 4.0 | 8.0 | 0.00 | 0.00 | 0.00 | 80 | 1016.5 |
| 20260502052250 | 53 | 254 | 5.0 | 8.0 | 0.00 | 0.00 | 0.00 | 79 | 1016.4 |
| 20260502051747 | 53 | 243 | 5.0 | 9.0 | 0.00 | 0.00 | 0.00 | 79 | 1016.4 |
| 20260502051248 | 54 | 228 | 5.0 | 10.0 | 0.00 | 0.00 | 0.00 | 78 | 1016.3 |
| 20260502050747 | 54 | 265 | 5.0 | 10.0 | 0.00 | 0.00 | 0.00 | 78 | 1016.4 |
| 20260502050507 | 54 | 227 | 5.0 | 10.0 | 0.00 | 0.00 | 0.00 | 78 | 1016.3 |
| 20260502050007 | 54 | 227 | 5.0 | 10.0 | 0.00 | 0.00 | 0.00 | 77 | 1016.4 |
| 20260502045239 | 54 | 256 | 6.0 | 10.0 | 0.00 | 0.00 | 0.00 | 77 | 1016.3 |
| 20260502044956 | 55 | 252 | 6.0 | 10.0 | 0.00 | 0.00 | 0.00 | 76 | 1016.2 |
| 20260502044239 | 55 | 241 | 6.0 | 11.0 | 0.00 | 0.00 | 0.00 | 76 | 1016.2 |
| 20260502043735 | 55 | 289 | 6.0 | 11.0 | 0.00 | 0.00 | 0.00 | 75 | 1016.1 |
| 20260502043237 | 55 | 287 | 6.0 | 11.0 | 0.00 | 0.00 | 0.00 | 75 | 1016.1 |
| 20260502042738 | 56 | 233 | 6.0 | 11.0 | 0.00 | 0.00 | 0.00 | 74 | 1016.0 |
| 20260502042233 | 56 | 239 | 7.0 | 12.0 | 0.00 | 0.00 | 0.00 | 73 | 1016.0 |
| 20260502041955 | 56 | 254 | 6.0 | 12.0 | 0.00 | 0.00 | 0.00 | 73 | 1016.0 |
| 20260502041453 | 56 | 239 | 5.0 | 9.0 | 0.00 | 0.00 | 0.00 | 73 | 1015.9 |
| 20260502040724 | 56 | 232 | 5.0 | 10.0 | 0.00 | 0.00 | 0.00 | 73 | 1015.8 |
| 20260502040224 | 57 | 226 | 6.0 | 10.0 | 0.00 | 0.00 | 0.00 | 73 | 1015.7 |
| 20260502035723 | 57 | 244 | 6.0 | 11.0 | 0.00 | 0.00 | 0.00 | 72 | 1015.7 |
| 20260502035218 | 57 | 231 | 6.0 | 11.0 | 0.00 | 0.00 | 0.00 | 71 | 1015.5 |
| 20260502034717 | 58 | 238 | 5.0 | 10.0 | 0.00 | 0.00 | 0.00 | 70 | 1015.4 |
| 20260502034218 | 58 | 249 | 5.0 | 10.0 | 0.00 | 0.00 | 0.00 | 70 | 1015.3 |
| 20260502033717 | 58 | 242 | 4.0 | 10.0 | 0.00 | 0.00 | 0.00 | 70 | 1015.3 |
| 20260502033439 | 59 | 234 | 4.0 | 10.0 | 0.00 | 0.00 | 0.00 | 69 | 1015.2 |
| 20260502032714 | 60 | 237 | 6.0 | 11.0 | 0.00 | 0.00 | 0.00 | 67 | 1015.2 |
| 20260502032214 | 60 | 241 | 6.0 | 11.0 | 0.00 | 0.00 | 0.00 | 66 | 1015.1 |
| 20260502031716 | 60 | 246 | 5.0 | 11.0 | 0.00 | 0.00 | 0.00 | 66 | 1015.1 |
| 20260502031212 | 60 | 232 | 5.0 | 9.0 | 0.00 | 0.00 | 0.00 | 68 | 1014.9 |
| 20260502030713 | 61 | 224 | 4.0 | 9.0 | 0.00 | 0.00 | 0.00 | 68 | 1015.0 |
| 20260502030708 | 62 | 232 | 4.0 | 8.0 | 0.00 | 0.00 | 0.00 | 67 | 1014.9 |
| 20260502025711 | 62 | 248 | 4.0 | 8.0 | 0.00 | 0.00 | 0.00 | 65 | 1014.9 |
| 20260502025211 | 63 | 260 | 4.0 | 8.0 | 0.00 | 0.00 | 0.00 | 64 | 1014.8 |
| 20260502024708 | 64 | 285 | 4.0 | 8.0 | 0.00 | 0.00 | 0.00 | 63 | 1014.7 |
| 20260502024208 | 64 | 248 | 4.0 | 9.0 | 0.00 | 0.00 | 0.00 | 63 | 1014.7 |
| 20260502023706 | 65 | 258 | 4.0 | 9.0 | 0.00 | 0.00 | 0.00 | 62 | 1014.7 |
| 20260502023206 | 65 | 292 | 4.0 | 7.0 | 0.00 | 0.00 | 0.00 | 62 | 1014.6 |
| 20260502022705 | 66 | 290 | 4.0 | 9.0 | 0.00 | 0.00 | 0.00 | 62 | 1014.5 |
| 20260502022204 | 66 | 292 | 5.0 | 10.0 | 0.00 | 0.00 | 0.00 | 61 | 1014.4 |
| 20260502021706 | 66 | 281 | 5.0 | 10.0 | 0.00 | 0.00 | 0.00 | 61 | 1014.4 |
| 20260502021433 | 66 | 292 | 5.0 | 10.0 | 0.00 | 0.00 | 0.00 | 62 | 1014.4 |
| 20260502020702 | 67 | 308 | 4.0 | 10.0 | 0.00 | 0.00 | 0.00 | 62 | 1014.3 |
| 20260502020421 | 67 | 332 | 4.0 | 7.0 | 0.00 | 0.00 | 0.00 | 68 | 1014.3 |
| 20260502015703 | 67 | 283 | 5.0 | 10.0 | 0.00 | 0.00 | 0.00 | 68 | 1014.3 |
| 20260502015201 | 67 | 283 | 5.0 | 10.0 | 0.00 | 0.00 | 0.00 | 67 | 1014.3 |
| 20260502014700 | 67 | 287 | 5.0 | 10.0 | 0.00 | 0.00 | 0.00 | 64 | 1014.3 |
| 20260502014159 | 67 | 252 | 6.0 | 10.0 | 0.00 | 0.00 | 0.00 | 63 | 1014.3 |
| 20260502013658 | 68 | 275 | 5.0 | 10.0 | 0.00 | 0.00 | 0.00 | 63 | 1014.2 |
| 20260502013157 | 69 | 312 | 3.0 | 9.0 | 0.00 | 0.00 | 0.00 | 65 | 1014.3 |
| 20260502012923 | 69 | 322 | 3.0 | 7.0 | 0.00 | 0.00 | 0.00 | 68 | 1014.2 |
| 20260502012158 | 69 | 0 | 4.0 | 8.0 | 0.00 | 0.00 | 0.00 | 67 | 1014.1 |
| 20260502011656 | 69 | 327 | 5.0 | 11.0 | 0.00 | 0.00 | 0.00 | 66 | 1014.1 |
| 20260502011154 | 70 | 319 | 6.0 | 11.0 | 0.00 | 0.00 | 0.00 | 65 | 1014.2 |
| 20260502010655 | 70 | 347 | 5.0 | 9.0 | 0.00 | 0.00 | 0.00 | 64 | 1014.1 |
| 20260502010157 | 70 | 312 | 5.0 | 9.0 | 0.00 | 0.00 | 0.00 | 66 | 1014.1 |
| 20260502005654 | 70 | 354 | 5.0 | 9.0 | 0.00 | 0.00 | 0.00 | 64 | 1014.1 |
| 20260502005153 | 70 | 4 | 5.0 | 9.0 | 0.00 | 0.00 | 0.00 | 63 | 1014.0 |
| 20260502004652 | 71 | 335 | 5.0 | 9.0 | 0.00 | 0.00 | 0.00 | 63 | 1014.1 |
| 20260502004154 | 71 | 0 | 5.0 | 10.0 | 0.00 | 0.00 | 0.00 | 60 | 1014.1 |
| 20260502003654 | 71 | 341 | 6.0 | 10.0 | 0.00 | 0.00 | 0.00 | 59 | 1014.0 |
| 20260502003148 | 71 | 350 | 5.0 | 10.0 | 0.00 | 0.00 | 0.00 | 59 | 1013.9 |
| 20260502002648 | 72 | 331 | 5.0 | 9.0 | 0.00 | 0.00 | 0.00 | 59 | 1013.8 |
| 20260502002152 | 73 | 319 | 5.0 | 9.0 | 0.00 | 0.00 | 0.00 | 57 | 1013.9 |
| 20260502001912 | 73 | 4 | 4.0 | 9.0 | 0.00 | 0.00 | 0.00 | 57 | 1013.9 |
| 20260502001150 | 73 | 287 | 4.0 | 8.0 | 0.00 | 0.00 | 0.00 | 55 | 1014.0 |
| 20260502000644 | 73 | 322 | 4.0 | 8.0 | 0.00 | 0.00 | 0.00 | 57 | 1014.0 |
| 20260502000145 | 73 | 22 | 4.0 | 8.0 | 0.00 | 0.00 | 0.00 | 56 | 1014.1 |
| 20260501235632 | 73 | 208 | 2.0 | 7.0 | 0.00 | 0.00 | 0.00 | 55 | 1014.0 |
| 20260501235342 | 73 | 270 | 2.0 | 5.0 | 0.00 | 0.00 | 0.00 | 55 | 1014.3 |
| 20260501234604 | 73 | 218 | 1.0 | 5.0 | 0.00 | 0.00 | 0.00 | 53 | 1014.2 |
| 20260501234055 | 73 | 232 | 1.0 | 4.0 | 0.00 | 0.00 | 0.00 | 56 | 1014.2 |
| 20260501233557 | 72 | 227 | 3.0 | 6.0 | 0.00 | 0.00 | 0.00 | 55 | 1014.3 |
| 20260501233055 | 73 | 289 | 3.0 | 6.0 | 0.00 | 0.00 | 0.00 | 56 | 1014.3 |
| 20260501232554 | 72 | 229 | 3.0 | 8.0 | 0.00 | 0.00 | 0.00 | 57 | 1014.4 |
| 20260501232055 | 72 | 127 | 4.0 | 8.0 | 0.00 | 0.00 | 0.00 | 55 | 1014.4 |
| 20260501231551 | 72 | 160 | 4.0 | 7.0 | 0.00 | 0.00 | 0.00 | 56 | 1014.4 |
| 20260501231054 | 73 | 167 | 3.0 | 7.0 | 0.00 | 0.00 | 0.00 | 55 | 1014.4 |
| 20260501230551 | 73 | 210 | 2.0 | 5.0 | 0.00 | 0.00 | 0.00 | 55 | 1014.6 |
| 20260501230049 | 72 | 319 | 2.0 | 5.0 | 0.00 | 0.00 | 0.00 | 56 | 1014.6 |
| 20260501225550 | 72 | 176 | 2.0 | 5.0 | 0.00 | 0.00 | 0.00 | 56 | 1014.7 |
| 20260501225051 | 73 | 7 | 2.0 | 6.0 | 0.00 | 0.00 | 0.00 | 58 | 1014.7 |
| 20260501224542 | 72 | 49 | 2.0 | 6.0 | 0.00 | 0.00 | 0.00 | 56 | 1014.8 |
| 20260501224041 | 72 | 301 | 2.0 | 4.0 | 0.00 | 0.00 | 0.00 | 59 | 1014.9 |
| 20260501223539 | 70 | 112 | 2.0 | 6.0 | 0.00 | 0.00 | 0.00 | 58 | 1014.9 |
| 20260501223041 | 72 | 258 | 2.0 | 6.0 | 0.00 | 0.00 | 0.00 | 55 | 1015.1 |
| 20260501222803 | 71 | 232 | 3.0 | 8.0 | 0.00 | 0.00 | 0.00 | 60 | 1015.1 |
| 20260501222305 | 71 | 128 | 3.0 | 8.0 | 0.00 | 0.00 | 0.00 | 59 | 1015.2 |
| 20260501221758 | 71 | 63 | 2.0 | 6.0 | 0.00 | 0.00 | 0.00 | 60 | 1015.2 |
| 20260501221034 | 69 | 177 | 3.0 | 8.0 | 0.00 | 0.00 | 0.00 | 62 | 1015.3 |
| 20260501220530 | 69 | 139 | 3.0 | 9.0 | 0.00 | 0.00 | 0.00 | 61 | 1015.4 |
| 20260501220252 | 69 | 124 | 3.0 | 9.0 | 0.00 | 0.00 | 0.00 | 60 | 1015.4 |
| 20260501215752 | 70 | 139 | 2.0 | 7.0 | 0.00 | 0.00 | 0.00 | 61 | 1015.5 |
| 20260501215020 | 70 | 71 | 2.0 | 5.0 | 0.00 | 0.00 | 0.00 | 60 | 1015.5 |
| 20260501214515 | 70 | 110 | 2.0 | 6.0 | 0.00 | 0.00 | 0.00 | 60 | 1015.5 |
| 20260501214017 | 69 | 35 | 2.0 | 6.0 | 0.00 | 0.00 | 0.00 | 64 | 1015.6 |
| 20260501213513 | 68 | 108 | 3.0 | 8.0 | 0.00 | 0.00 | 0.00 | 62 | 1015.7 |
| 20260501213007 | 69 | 122 | 4.0 | 8.0 | 0.00 | 0.00 | 0.00 | 61 | 1015.8 |
| 20260501212504 | 68 | 235 | 3.0 | 6.0 | 0.00 | 0.00 | 0.00 | 62 | 1015.8 |
| 20260501212006 | 68 | 144 | 3.0 | 8.0 | 0.00 | 0.00 | 0.00 | 63 | 1015.8 |
| 20260501211502 | 67 | 98 | 3.0 | 9.0 | 0.00 | 0.00 | 0.00 | 63 | 1015.8 |
| 20260501211002 | 68 | 177 | 3.0 | 9.0 | 0.00 | 0.00 | 0.00 | 62 | 1015.9 |
| 20260501210456 | 67 | 133 | 3.0 | 8.0 | 0.00 | 0.00 | 0.00 | 63 | 1015.9 |
| 20260501205956 | 67 | 129 | 3.0 | 8.0 | 0.00 | 0.00 | 0.00 | 64 | 1016.0 |
| 20260501205456 | 67 | 112 | 4.0 | 9.0 | 0.00 | 0.00 | 0.00 | 65 | 1015.9 |
| 20260501204958 | 66 | 115 | 5.0 | 10.0 | 0.00 | 0.00 | 0.00 | 66 | 1016.1 |
| 20260501204456 | 66 | 239 | 4.0 | 10.0 | 0.00 | 0.00 | 0.00 | 67 | 1016.1 |
| 20260501203953 | 67 | 133 | 3.0 | 8.0 | 0.00 | 0.00 | 0.00 | 65 | 1016.1 |
| 20260501203453 | 66 | 40 | 3.0 | 8.0 | 0.00 | 0.00 | 0.00 | 65 | 1016.1 |
| 20260501202958 | 65 | 179 | 3.0 | 6.0 | 0.00 | 0.00 | 0.00 | 68 | 1016.3 |
| 20260501202451 | 65 | 123 | 3.0 | 10.0 | 0.00 | 0.00 | 0.00 | 67 | 1016.2 |
| 20260501201949 | 65 | 142 | 3.0 | 10.0 | 0.00 | 0.00 | 0.00 | 66 | 1016.3 |
| 20260501201451 | 65 | 89 | 4.0 | 9.0 | 0.00 | 0.00 | 0.00 | 68 | 1016.4 |
| 20260501200949 | 66 | 141 | 3.0 | 10.0 | 0.00 | 0.00 | 0.00 | 67 | 1016.5 |
| 20260501200452 | 65 | 170 | 4.0 | 9.0 | 0.00 | 0.00 | 0.00 | 68 | 1016.6 |
| 20260501195949 | 65 | 182 | 4.0 | 9.0 | 0.00 | 0.00 | 0.00 | 72 | 1016.8 |
| 20260501195447 | 64 | 139 | 4.0 | 9.0 | 0.00 | 0.00 | 0.00 | 67 | 1016.7 |